Le nostre stazioni meteo in Italia

Pubblicità
Il mio iltempo24.it
Edinburgh, Gran Bretagna (3160): Temperatura & dewpoint: 30.06.2020 00:00:00 - 06.07.2020 00:00:00 (BST)Edinburgh, Gran Bretagna (3160): velocità del vento: 30.06.2020 00:00:00 - 06.07.2020 00:00:00 (BST)Edinburgh, Gran Bretagna (3160): direzione del vento: 30.06.2020 00:00:00 - 06.07.2020 00:00:00 (BST)Edinburgh, Gran Bretagna (3160): visibility: 30.06.2020 00:00:00 - 06.07.2020 00:00:00 (BST)
Data & Tempo tt [°C] td [°C] ff [km/h] ff [kn] dd vv [km]
06.07.2020 00:00:00 11,0 8,0 21 11 OSO 10
05.07.2020 23:00:00 11,0 8,0 18 10 OSO 10
05.07.2020 22:00:00 11,0 8,0 24 13 O 10
05.07.2020 21:00:00 12,0 9,0 22 12 O 10
05.07.2020 20:00:00 12,0 9,0 21 11 OSO 10
05.07.2020 19:00:00 13,0 11,0 15 8 OSO 10
05.07.2020 18:00:00 13,0 10,0 24 13 OSO 10
05.07.2020 17:00:00 11,0 8,0 28 15 O 10
05.07.2020 16:00:00 14,0 9,0 34 18 OSO 10
05.07.2020 15:00:00 14,0 10,0 37 20 OSO 10
05.07.2020 14:00:00 15,0 10,0 35 19 OSO 10
05.07.2020 13:00:00 14,0 11,0 28 15 OSO 10
05.07.2020 12:00:00 14,0 10,0 39 21 OSO 10
05.07.2020 11:00:00 15,0 8,0 42 23 OSO 10
05.07.2020 10:00:00 14,0 9,0 39 21 OSO 10
05.07.2020 09:00:00 13,0 9,0 34 18 OSO 10
05.07.2020 08:00:00 14,0 10,0 29 16 O 10
05.07.2020 07:00:00 14,0 11,0 31 17 OSO 10
05.07.2020 06:00:00 13,0 10,0 29 16 OSO 10
05.07.2020 05:00:00 13,0 10,0 31 17 OSO 10
05.07.2020 04:00:00 14,0 11,0 48 26 OSO 10
05.07.2020 03:00:00 15,0 14,0 34 18 OSO 10
05.07.2020 02:00:00 16,0 15,0 35 19 SO 5
05.07.2020 01:00:00 16,0 15,0 26 14 SO 10
05.07.2020 00:00:00 15,0 15,0 24 13 SO 4,8
04.07.2020 23:00:00 15,0 14,0 5 3 - 10
04.07.2020 22:00:00 14,0 13,0 9 5 E 10
04.07.2020 21:00:00 15,0 12,0 5 3 - 10
04.07.2020 20:00:00 15,0 11,0 9 5 SSO 10
04.07.2020 19:00:00 16,0 11,0 13 7 SO 10
04.07.2020 18:00:00 15,0 11,0 13 7 OSO 10
04.07.2020 17:00:00 15,0 11,0 11 6 O 10
04.07.2020 16:00:00 16,0 12,0 21 11 SO 10
04.07.2020 15:00:00 15,0 12,0 16 9 OSO 10
04.07.2020 14:00:00 14,0 12,0 13 7 O 10
04.07.2020 13:00:00 13,0 12,0 5 3 - 6
04.07.2020 12:00:00 12,0 11,0 11 6 ONO 6
04.07.2020 11:00:00 13,0 11,0 11 6 O 10
04.07.2020 10:00:00 14,0 10,0 13 7 OSO 10
04.07.2020 09:00:00 - - - - - -
04.07.2020 08:00:00 12,0 11,0 9 5 OSO 10
04.07.2020 07:00:00 11,0 10,0 11 6 SO 10
04.07.2020 06:00:00 10,0 9,0 5 3 O 10
04.07.2020 05:00:00 10,0 9,0 4 2 - 10
04.07.2020 04:00:00 10,0 9,0 5 3 ONO 10
04.07.2020 03:00:00 10,0 9,0 4 2 - 10
04.07.2020 02:00:00 9,0 9,0 5 3 OSO 10
04.07.2020 01:00:00 9,0 9,0 5 3 OSO 10
04.07.2020 00:00:00 10,0 9,0 5 3 O 10
03.07.2020 23:00:00 9,0 8,0 9 5 SO 10
03.07.2020 22:00:00 12,0 10,0 9 5 O 10
03.07.2020 21:00:00 12,0 11,0 16 9 OSO 10
03.07.2020 20:00:00 13,0 11,0 16 9 OSO 10
03.07.2020 19:00:00 13,0 12,0 21 11 OSO 10
03.07.2020 18:00:00 14,0 13,0 11 6 O 10
03.07.2020 17:00:00 14,0 13,0 15 8 O 6
03.07.2020 16:00:00 15,0 15,0 21 11 SO 6
03.07.2020 15:00:00 16,0 14,0 21 11 SO 10
03.07.2020 14:00:00 15,0 14,0 21 11 SO 10
03.07.2020 13:00:00 15,0 14,0 21 11 SO 10
03.07.2020 12:00:00 15,0 13,0 24 13 SO 10
03.07.2020 11:00:00 15,0 13,0 24 13 SO 10
03.07.2020 10:00:00 14,0 12,0 18 10 SO 10
03.07.2020 09:00:00 13,0 12,0 8 4 SO 10
03.07.2020 08:00:00 11,0 10,0 5 3 - 9
03.07.2020 07:00:00 - - - - - -
03.07.2020 06:00:00 9,0 9,0 8 4 ENE 10
03.07.2020 05:00:00 9,0 8,0 2 1 O 10
03.07.2020 04:00:00 9,0 8,0 8 4 OSO 10
03.07.2020 03:00:00 10,0 8,0 11 6 OSO 10
03.07.2020 02:00:00 10,0 7,0 8 4 OSO 10
03.07.2020 01:00:00 11,0 6,0 13 7 SO 10
03.07.2020 00:00:00 11,0 7,0 9 5 OSO 10
02.07.2020 23:00:00 12,0 7,0 9 5 OSO 10
02.07.2020 22:00:00 13,0 7,0 21 11 OSO 10
02.07.2020 21:00:00 15,0 8,0 18 10 O 10
02.07.2020 20:00:00 16,0 8,0 13 7 O 10
02.07.2020 19:00:00 17,0 9,0 9 5 O 10
02.07.2020 18:00:00 16,0 9,0 13 7 SO 10
02.07.2020 17:00:00 16,0 10,0 8 4 NNE 10
02.07.2020 16:00:00 17,0 8,0 5 3 - 10
02.07.2020 15:00:00 15,0 10,0 9 5 NE 10
02.07.2020 14:00:00 15,0 9,0 11 6 NE 10
02.07.2020 13:00:00 15,0 9,0 9 5 NNE 10
02.07.2020 12:00:00 14,0 9,0 11 6 NNE 10
02.07.2020 11:00:00 14,0 9,0 11 6 NE 10
02.07.2020 10:00:00 13,0 8,0 11 6 NNE 10
02.07.2020 09:00:00 13,0 7,0 11 6 ESE 10
02.07.2020 08:00:00 12,0 8,0 13 7 ENE 10
02.07.2020 07:00:00 12,0 8,0 11 6 E 10
02.07.2020 06:00:00 11,0 8,0 8 4 E 10
02.07.2020 05:00:00 11,0 8,0 5 3 E 10
02.07.2020 04:00:00 10,0 8,0 4 2 ENE 10
02.07.2020 03:00:00 10,0 8,0 5 3 E 10
02.07.2020 02:00:00 10,0 9,0 4 2 E 10
02.07.2020 01:00:00 10,0 8,0 5 3 ENE 10
02.07.2020 00:00:00 11,0 8,0 5 3 E 10
01.07.2020 23:00:00 11,0 7,0 5 3 ENE 10
01.07.2020 22:00:00 11,0 8,0 8 4 ENE 10
01.07.2020 21:00:00 12,0 7,0 9 5 E 10
01.07.2020 20:00:00 12,0 8,0 18 10 E 10
01.07.2020 19:00:00 13,0 8,0 16 9 ENE 10
01.07.2020 18:00:00 13,0 8,0 16 9 E 10
01.07.2020 17:00:00 13,0 8,0 22 12 E 10
01.07.2020 16:00:00 13,0 9,0 24 13 E 10
01.07.2020 15:00:00 13,0 10,0 21 11 ENE 9
01.07.2020 14:00:00 12,0 11,0 22 12 ENE 10
01.07.2020 13:00:00 12,0 11,0 22 12 ENE 5
01.07.2020 12:00:00 12,0 11,0 24 13 ENE 3,6
01.07.2020 11:00:00 13,0 11,0 21 11 ENE 10
01.07.2020 10:00:00 13,0 11,0 16 9 E 9
01.07.2020 09:00:00 12,0 11,0 22 12 ENE 10
01.07.2020 08:00:00 13,0 12,0 13 7 NE 10
01.07.2020 07:00:00 12,0 12,0 4 2 N 10
01.07.2020 06:00:00 12,0 11,0 8 4 OSO 10
01.07.2020 05:00:00 11,0 10,0 9 5 OSO 10
01.07.2020 04:00:00 11,0 10,0 8 4 OSO 10
01.07.2020 03:00:00 12,0 11,0 11 6 OSO 10
01.07.2020 02:00:00 11,0 10,0 5 3 O 10
01.07.2020 01:00:00 - - - - - -
01.07.2020 00:00:00 12,0 11,0 5 3 OSO 10
30.06.2020 23:00:00 13,0 11,0 8 4 O 10
30.06.2020 22:00:00 14,0 11,0 9 5 O 10
30.06.2020 21:00:00 16,0 11,0 13 7 O 10
30.06.2020 20:00:00 17,0 11,0 13 7 O 10
30.06.2020 19:00:00 - - - - - -
30.06.2020 18:00:00 17,0 12,0 4 2 - 10
30.06.2020 17:00:00 18,0 11,0 15 8 OSO 10
30.06.2020 16:00:00 18,0 11,0 15 8 OSO 10
30.06.2020 15:00:00 19,0 12,0 22 12 OSO 10
30.06.2020 14:00:00 19,0 12,0 24 13 OSO 10
30.06.2020 13:00:00 18,0 12,0 22 12 OSO 10
30.06.2020 12:00:00 16,0 11,0 18 10 O 10
30.06.2020 11:00:00 16,0 12,0 18 10 OSO 10
30.06.2020 10:00:00 15,0 11,0 13 7 O 10
30.06.2020 09:00:00 14,0 11,0 22 12 OSO 10
30.06.2020 08:00:00 15,0 11,0 18 10 OSO 10
30.06.2020 07:00:00 13,0 11,0 16 9 O 10
30.06.2020 06:00:00 12,0 10,0 16 9 OSO 10
30.06.2020 05:00:00 12,0 10,0 13 7 OSO 10
30.06.2020 04:00:00 12,0 10,0 21 11 OSO 10
30.06.2020 03:00:00 12,0 10,0 16 9 OSO 10
30.06.2020 02:00:00 12,0 10,0 18 10 OSO 10
30.06.2020 01:00:00 12,0 11,0 4 2 - 10
30.06.2020 00:00:00 13,0 11,0 21 11 OSO 10

tt = Temperatura
td = dewpoint
ff = velocità del vento
dd = direzione del vento
vv = visibility

Stazioni seguenti

WeatherPro
AMSI
MeteoEarth